History for Miami, FL

Friday, January 18, 2013 — View Current Conditions

Jump to Data:

Date:
Airport Code:
Recently Viewed Airport Codes: KMIA
Daily Summary
  Actual Average Record
Temperature
Mean Temperature 61°F 68°F  
Max Temperature 66°F 76°F 84°F (1987)
Min Temperature 56°F 60°F 35°F (1965)
Degree Days
Heating Degree Days 4 2  
Month to date heating degree days 4 36  
Since 1 July heating degree days 20 73  
Cooling Degree Days 0 5  
Month to date cooling degree days 178 90  
Year to date cooling degree days 178 90  
Growing Degree Days 10 (Base 50)    
Moisture
Dew Point 52°F    
Average Humidity 69    
Maximum Humidity 78    
Minimum Humidity 60    
Precipitation
Precipitation T in 0.05 in 1.76 in (1913)
Month to date precipitation 0.33 0.90  
Year to date precipitation 0.33 0.90  
Snow
Snow 0.00 in in in ()
Month to date snowfall 0.0  
Since 1 July snowfall 0.0  
Snow Depth 0.00 in    
Sea Level Pressure
Sea Level Pressure 30.19 in    
Wind
Wind Speed 6 mph (NNW)    
Max Wind Speed 15 mph    
Max Gust Speed 22 mph    
Visibility 10 miles    
Events Rain    
T = Trace of Precipitation, MM = Missing Value Source: NWS Daily Summary

Show full METARS

(help) - Comma Delimited File

Hourly Observations

Time(EST) Temperature Dew Point Humidity Sea Level Pressure Visibility Wind Direction Wind Speed Gust Speed Precipitation Events Conditions
12:53 AM 61.0°F 51.1°F 70% 30.13 in 10.0 miles NW 10.4 mph 17.3 mph N/A   Clear
1:53 AM 60.1°F 50.0°F 69% 30.13 in 10.0 miles NW 9.2 mph 17.3 mph N/A   Clear
2:53 AM 60.1°F 48.9°F 67% 30.13 in 10.0 miles NW 9.2 mph 18.4 mph N/A   Clear
3:53 AM 59.0°F 48.9°F 69% 30.14 in 10.0 miles NW 8.1 mph - N/A   Clear
4:53 AM 57.9°F 48.9°F 72% 30.15 in 10.0 miles NW 9.2 mph - N/A   Clear
5:53 AM 55.9°F 46.9°F 72% 30.17 in 10.0 miles Variable 6.9 mph 17.3 mph N/A   Scattered Clouds
6:53 AM 55.9°F 46.9°F 72% 30.19 in 10.0 miles NW 11.5 mph 16.1 mph N/A   Scattered Clouds
7:48 AM 55.4°F 46.4°F 72% 30.21 in 10.0 miles NNW 12.7 mph 18.4 mph N/A   Overcast
7:53 AM 55.9°F 46.9°F 72% 30.22 in 10.0 miles NNW 12.7 mph 20.7 mph N/A   Overcast
8:53 AM 55.9°F 46.0°F 69% 30.24 in 10.0 miles NNW 10.4 mph - N/A   Overcast
9:53 AM 57.0°F 46.9°F 69% 30.26 in 10.0 miles North 9.2 mph - N/A   Overcast
10:53 AM 57.0°F 46.9°F 69% 30.26 in 10.0 miles Variable 4.6 mph - N/A   Overcast
11:53 AM 60.1°F 48.0°F 64% 30.23 in 10.0 miles North 5.8 mph - N/A   Overcast
11:59 AM 60.8°F 48.2°F 63% 30.23 in 10.0 miles Variable 3.5 mph - N/A   Overcast
12:29 PM 60.8°F 48.2°F 63% 30.21 in 10.0 miles Variable 6.9 mph - N/A   Overcast
12:53 PM 61.0°F 48.9°F 64% 30.20 in 10.0 miles Variable 5.8 mph - N/A   Overcast
1:53 PM 63.0°F 50.0°F 63% 30.18 in 10.0 miles North 5.8 mph - N/A   Overcast
2:53 PM 64.0°F 50.0°F 60% 30.17 in 10.0 miles Calm Calm - N/A   Overcast
3:19 PM 64.4°F 50.0°F 59% 30.17 in 10.0 miles NE 3.5 mph - N/A   Overcast
3:53 PM 64.9°F 51.1°F 61% 30.17 in 10.0 miles NE 3.5 mph - N/A   Overcast
4:53 PM 66.0°F 53.1°F 63% 30.18 in 10.0 miles Calm Calm - N/A   Overcast
5:47 PM 66.2°F 55.4°F 68% 30.19 in 10.0 miles East 3.5 mph - 0.00 in Rain Light Rain
5:53 PM 64.9°F 55.9°F 73% 30.19 in 10.0 miles SE 3.5 mph - 0.00 in Rain Light Rain
6:19 PM 64.4°F 57.2°F 77% 30.19 in 10.0 miles Calm Calm - 0.00 in   Overcast
6:53 PM 64.9°F 57.0°F 75% 30.19 in 10.0 miles Calm Calm - 0.00 in   Overcast
7:53 PM 64.9°F 57.0°F 75% 30.20 in 10.0 miles Calm Calm - N/A   Mostly Cloudy
8:53 PM 64.9°F 57.9°F 78% 30.20 in 10.0 miles Calm Calm - 0.00 in   Overcast
9:53 PM 64.9°F 57.9°F 78% 30.21 in 10.0 miles WSW 3.5 mph - N/A   Overcast
10:09 PM 66.2°F 57.2°F 73% 30.21 in 10.0 miles Calm Calm - N/A   Overcast
10:53 PM 64.9°F 57.9°F 78% 30.20 in 10.0 miles Calm Calm - 0.00 in Rain Light Rain
11:29 PM 64.4°F 59.0°F 83% 30.19 in 10.0 miles WNW 3.5 mph - 0.00 in   Overcast
11:53 PM 63.0°F 59.0°F 87% 30.19 in 10.0 miles West 3.5 mph - 0.00 in Rain Light Rain